Location: Chittendens Corners
(41.2320°N, 81.4940°W)
Time: 18:26:55
(UTC+00:00)

Meteor 2-16 Rocket - Pass Details

Date: 29 October 2020
Orbit: 941 x 957 km, 82.6° (Epoch: 23 November)

Event Time Altitude Azimuth Distance (km) Brightness Sun altitude
Rises 23:09:52 0° 351° (N) 3,615 7.5 -9.1°
Reaches altitude 10° 23:12:21 10° 352° (N) 2,667 6.8 -9.6°
Maximum altitude 23:18:28 88° 265° (W) 950 4.5 -10.7°
Drops below altitude 10° 23:24:33 10° 175° (S) 2,657 6.8 -11.8°
Sets 23:27:01 0° 175° (S) 3,600 7.5 -12.3°
